Regional Weather Roundup
Issued by NWS

Home | Current Version | Previous Version | Graphics & Text | Print | Product List | Glossary Off
Versions: 1 2 3 4 5 6 7 8 9 10 11 12 13 14 15 16 17 18 19 20 21 22 23 24 25 26 27 28 29 30 31 32 33 34 35 36 37 38 39 40 41 42 43 44 45 46 47 48 49 50

000
ASUS43 KMKX 241700
RWRWI

WISCONSIN REGIONAL WEATHER ROUNDUP
NATIONAL WEATHER SERVICE MILWAUKEE/SULLIVAN WI
1200 PM CDT MON JUL 24 2017

NOTE: "FAIR" INDICATES FEW OR NO CLOUDS BELOW 12,000 FEET WITH NO
SIGNIFICANT WEATHER AND/OR OBSTRUCTIONS TO VISIBILITY.

WIZ001-002-006>008-014>016-023>028-241800-
NORTHWEST WISCONSIN

CITY           SKY/WX    TMP DP  RH WIND       PRES   REMARKS
SUPERIOR ARPT  NOT AVBL
ASHLAND        FAIR      72  58  61 SE6       30.09F
HAYWARD        FAIR      70  53  54 E7        30.09F
SIREN          FAIR      69  56  63 SE6       30.08F
CUMBERLAND     FAIR      64  54  68 E3        30.10S
RICE LAKE      FAIR      65  55  71 SE8       30.11F
CHETEK         CLOUDY    61  56  83 NE6       30.10F
LADYSMITH      FAIR      65  56  70 E6        30.12F
EAU CLAIRE     NOT AVBL
MENOMONIE      FAIR      67  58  72 NE6       30.10S
NEW RICHMOND   FAIR      69  56  63 CALM      30.08F
OSCEOLA        FAIR      71  58  62 E5        30.10S
$$

WIZ003>005-009-010-017-018-241800-
NORTH CENTRAL WISCONSIN

CITY           SKY/WX    TMP DP  RH WIND       PRES   REMARKS
MANITOWISH WTR FAIR      69  51  51 E8        30.11F
ARBOR VITAE    FAIR      70  53  54 E7        30.12S
WOODRUFF       FAIR      70  53  54 E7        30.12S
RHINELANDER    FAIR      69  52  54 SE7       30.13S
EAGLE RIVER    FAIR      69  49  48 SE3       30.12F
LAND O LAKES   FAIR      71  49  44 SE5       30.13F
PHILLIPS       FAIR      68  53  57 SE6       30.10F
TOMAHAWK         N/A     67  54  63 CALM      30.12S
MEDFORD        FAIR      65  53  64 E5        30.11S
MERRILL        FAIR      69  54  58 SE6       30.11
$$

WIZ029-030-035-036-043>047-241800-
CENTRAL WISCONSIN

CITY           SKY/WX    TMP DP  RH WIND       PRES   REMARKS
WAUSAU         FAIR      71  54  54 MISG      30.09S
MOSINEE        MOSUNNY   70  55  60 E8        30.11F
MARSHFIELD     PTSUNNY   69  55  60 VRB6      30.09S
STEVENS POINT  FAIR      67  54  62 E6        30.11S
WAUPACA        FAIR      73  55  52 N3        30.10S
WAUTOMA        PTSUNNY   70  57  63 NE6       30.10S
WISC RAPIDS    PTSUNNY   72  56  57 NE3       30.11S
CAMP DOUGLAS   NOT AVBL
$$

WIZ011>013-019>022-031-037>040-048>050-241800-
NORTHEAST WISCONSIN

CITY           SKY/WX    TMP DP  RH WIND       PRES   REMARKS
ANTIGO         FAIR      69  52  55 E6        30.12S
SHAWANO        FAIR      72  54  52 E7        30.10S
OCONTO         FAIR      69  53  56 E7        30.09S
STURGEON BAY     N/A     68  58  70 N10       30.09S
GREEN BAY      FAIR      68  59  73 NE9G17    30.10R
MANITOWOC      NOT AVBL
APPLETON       MOSUNNY   70  52  52 E7        30.09R
CLINTONVILLE   FAIR     N/A N/A N/A NE7       30.10S
OSHKOSH        FAIR      70  58  65 NE7       30.08S
$$

WIZ032>034-041-042-053>061-241800-
SOUTHWEST WISCONSIN

CITY           SKY/WX    TMP DP  RH WIND       PRES   REMARKS
LA CROSSE      CLOUDY    68  57  68 VRB3      30.08F
SPARTA         CLOUDY    68  56  66 E5        30.10S
VIROQUA        CLOUDY    65  59  79 CALM      30.10S
BOSCOBEL       CLOUDY    71  57  61 CALM      30.08S
PRAIRIE DU CHI PTSUNNY   69  56  64 NE5       30.07S
PLATTEVILLE    CLOUDY    69  60  73 NE3       30.09R
$$

WIZ056-057-062-063-064-067-068-241800-
SOUTH CENTRAL WISCONSIN

CITY           SKY/WX    TMP DP  RH WIND       PRES   REMARKS
REEDSBURG      CLOUDY    67  58  72 E7        30.09S
BARABOO/DELLS  CLOUDY    67  55  63 NE6       30.09S
LONE ROCK      NOT AVBL
MINERAL POINT  CLOUDY    70  59  68 NE5       30.09S
MADISON        PTSUNNY   69  57  65 NE7       30.08S
MIDDLETON      CLOUDY    70  58  66 E8        30.09S
WATERTOWN      CLOUDY    70  59  68 NE6       30.08R
MONROE         CLOUDY    68  59  73 N10       30.08R
JANESVILLE     PTSUNNY   72  57  60 NE7       30.07R
$$

WIZ051-052-058>065-066-070>072-241800-
SOUTHEAST WISCONSIN

CITY           SKY/WX    TMP DP  RH WIND       PRES   REMARKS
MILWAUKEE      PTSUNNY   71  60  68 NE16G22   30.07R
WAUKESHA       MOSUNNY   66  55  68 NE9G18    30.09R
MILWAUKEE/TIMM PTSUNNY   66  54  63 E10G21    30.08R
RACINE         FAIR      70  60  70 NE18      30.08R
KENOSHA        CLOUDY    71  57  61 NE15      30.06S
FOND DU LAC    PTSUNNY   72  56  57 NE8       30.08S
SHEBOYGAN      FAIR      68  59  73 NE17      30.08F
WEST BEND      FAIR      68  59  73 NE12      30.08S
JUNEAU         PTSUNNY   70  57  64 E9        30.09R
$$

LSZ147-162-241800-
LAKE SUPERIOR

STATION/POSITION TIME  TEMP    WIND        PRES    WAVE
                       AIR SEA DIR/SP/G            HT/PER
                 (UTC) (F)     (DEG/KT/KT) (MB)    (FT/S)
W MID LAKE BUOY  1550   49 49  240/  4/  6 1020.1R   0
DEVILS ISLAND    1600   57      20/  2/  2 1020.0R
PORT WING        1540   55     350/  4/  6   N/A
SAXON HARBOR     1640   61      20/  6/  7 1019.0F
$$

LMZ867-665-643>646-241800-
LAKE MICHIGAN

STATION/POSITION TIME  TEMP    WIND        PRES    WAVE
                       AIR SEA DIR/SP/G            HT/PER
                 (UTC) (F)     (DEG/KT/KT) (MB)    (FT/S)
CHAMBERS ISLAND  1640   66      20/  8/  9 1018.3S
S GREEN BAY BUOY 1630   65 72   50/ 12/ 16 1018.9R
N MID LAKE BUOY  1550   63 66   20/ 16/ 19 1018.6R   3/ 4
NORTHPORT PIER   1640   66     340/ 11/ 12 1018.6S
KEWAUNEE LAKESHO 1630   67      40/ 10/ 13 1018.1R
SHEBOYGAN LAKESH 1600   64      20/ 16/ 18 1018.1R
PORT WASHINGTON  1640   69      40/ 15/ 20 1019.3R
ATWATER BUOY     1509   66 68   30/ 17/ 21 1017.6R
MILWAUKEE LAKESH 1630   66      30/ 16/ 18   N/A
S MID LAKE BUOY  1550   66 70   20/ 14/ 17 1016.7R   4/ 7
KENOSHA   LAKESH 1600   66      30/ 17/ 20 1017.3
$$

TC  - TEMPERATURE IN CELSIUS
VSB - VISIBILITY IN STATUTE MILES
WCI - WIND CHILL INDEX
HX  - HEAT INDEX





USA.gov is the U.S. government's official web portal to all federal, state and local government web resources and services.